McComb, MS

4:34 PM CDT on August 19, 2017 (GMT -0500)
McComb-Pike County-Lewis

Weather History for KMCB - October, 2012

Change the Weather History Date:

Tuesday, October 2, 2012

  Actual Average Record
Temperature  
Mean Temperature 66 °F -  
Max Temperature 75 °F 84 °F 93 °F (1952)
Min Temperature 57 °F 55 °F 40 °F (1984)
Cooling Degree Days 1    
Growing Degree Days 16 (Base 50)    
Moisture  
Dew Point 56 °F    
Average Humidity 75    
Maximum Humidity 97    
Minimum Humidity 42    
Precipitation  
Precipitation 0.00 in - - ()
Sea Level Pressure  
Sea Level Pressure 29.88 in    
Wind  
Wind Speed 2 mph (WNW)    
Max Wind Speed 8 mph    
Max Gust Speed -    
Visibility 9 miles    
Events      
Averages and records for this station are not official NWS values.
T = Trace of Precipitation, MM = Missing Value Source: NWS Daily Summary

Daily Weather History Graph

Daily Weather History Graph

Search for Another Location

Airport or City:

Trip Planner

Search our weather history database for the weather conditions in past years. The results will help you decide how hot, cold, wet, or windy it might be!

Date:

Astronomy

Oct. 02, 2012 Rise Set
Actual Time 6:56 AM CDT 6:45 PM CDT
Civil Twilight 6:32 AM CDT 7:09 PM CDT
Nautical Twilight 6:04 AM CDT 7:37 PM CDT
Astronomical Twilight 5:36 AM CDT 8:05 PM CDT
Moon 8:11 PM CDT (10/2) 9:11 AM CDT (10/2)
Length of Visible Light 12h 36m
Length of Day
11h 48m
Waning Gibbous, 94% of the Moon is Illuminated
Oct 2
Waning Gibbous
Oct 8
Last Quarter
Oct 15
New
Oct 21
First Quarter
Oct 29
Full

Hourly Weather History & Observations

Time (CDT) Temp. Dew Point Humidity Pressure Visibility Wind Dir Wind Speed Gust Speed Precip Events Conditions
12:53 AM 61.0 °F 60.1 °F 97% 29.76 in 6.0 mi WNW 4.6 mph - N/A   Mostly Cloudy
2:53 AM 60.1 °F 59.0 °F 96% 29.78 in 7.0 mi Calm Calm - N/A   Overcast
3:53 AM 60.1 °F 59.0 °F 96% 29.78 in 8.0 mi Calm Calm - N/A   Overcast
4:53 AM 59.0 °F 57.9 °F 96% 29.80 in 7.0 mi Calm Calm - N/A   Overcast
5:53 AM 59.0 °F 57.0 °F 93% 29.82 in 8.0 mi Calm Calm - N/A   Scattered Clouds
6:53 AM 57.0 °F 55.9 °F 96% 29.83 in 5.0 mi Calm Calm - N/A   Clear
7:53 AM 59.0 °F 57.0 °F 93% 29.86 in 8.0 mi NW 3.5 mph - N/A   Clear
8:53 AM 63.0 °F 57.9 °F 84% 29.88 in 10.0 mi NW 3.5 mph - N/A   Clear
9:53 AM 68.0 °F 55.9 °F 65% 29.89 in 10.0 mi Variable 3.5 mph - N/A   Clear
10:53 AM 70.0 °F 57.0 °F 63% 29.91 in 10.0 mi Calm Calm - N/A   Clear
11:53 AM 72.0 °F 55.9 °F 57% 29.91 in 10.0 mi Calm Calm - N/A   Mostly Cloudy
12:53 PM 73.9 °F 54.0 °F 50% 29.90 in 10.0 mi WNW 4.6 mph - N/A   Scattered Clouds
1:53 PM 73.9 °F 52.0 °F 46% 29.88 in 10.0 mi NW 3.5 mph - N/A   Clear
2:53 PM 75.9 °F 51.1 °F 42% 29.87 in 10.0 mi NNW 5.8 mph - N/A   Partly Cloudy
3:53 PM 75.0 °F 52.0 °F 44% 29.88 in 10.0 mi West 8.1 mph - N/A   Mostly Cloudy
4:53 PM 75.0 °F 52.0 °F 44% 29.88 in 10.0 mi Variable 4.6 mph - N/A   Clear
5:53 PM 73.0 °F 55.0 °F 53% 29.89 in 10.0 mi Calm Calm - N/A   Partly Cloudy
7:53 PM 64.0 °F 59.0 °F 84% 29.93 in 10.0 mi Calm Calm - N/A   Clear
9:53 PM 61.0 °F 57.9 °F 90% 29.96 in 10.0 mi Calm Calm - N/A   Clear
10:53 PM 59.0 °F 57.0 °F 93% 29.98 in 10.0 mi Calm Calm - N/A   Clear
11:53 PM 59.0 °F 57.0 °F 93% 29.99 in 10.0 mi Calm Calm - N/A   Clear